Location: Plainartige
(45.6866°N, 1.7993°E)
Time: 08:54:53
(UTC+00:00)

Tiros 1 - Pass Details

Date: 04 June 2022
Orbit: 629 x 663 km, 48.4° (Epoch: 04 July)

Event Time Altitude Azimuth Distance (km) Brightness Sun altitude
Rises 02:59:10 0° 289° (WNW) 2,924 10.3 -9.6°
Reaches altitude 10° 03:01:35 10° 282° (WNW) 2,017 9.4 -9.3°
Maximum altitude 03:05:55 40° 214° (SSW) 940 7.5 -8.8°
Drops below altitude 10° 03:10:16 10° 145° (SE) 2,026 9.6 -8.3°
Sets 03:12:42 0° 137° (SE) 2,939 10.5 -8.0°
